Change the Weather History Date:

Tuesday, January 15, 2013

  Actual Average Record
Temperature  
Mean Temperature 54 °F -  
Max Temperature 63 °F 49 °F 66 °F (2007)
Min Temperature 46 °F 32 °F 21 °F (2009)
Degree Days  
Heating Degree Days 10    
Growing Degree Days 4 (Base 50)    
Moisture  
Dew Point 51 °F    
Average Humidity 92    
Maximum Humidity 97    
Minimum Humidity 87    
Precipitation  
Precipitation 0.21 in - - ()
Sea Level Pressure  
Sea Level Pressure 30.09 in    
Wind  
Wind Speed 5 mph (ENE)    
Max Wind Speed 14 mph    
Max Gust Speed 22 mph    
Visibility 7 miles    
Events Rain    
Averages and records for this station are not official NWS values.
T = Trace of Precipitation, MM = Missing Value Source: NWS Daily Summary

Daily Weather History Graph

Daily Weather History Graph

Search for Another Location

Airport or City:

Trip Planner

Search our weather history database for the weather conditions in past years. The results will help you decide how hot, cold, wet, or windy it might be!

Date:

Astronomy

Jan. 15, 2013 Rise Set
Actual Time 7:36 AM EST 5:41 PM EST
Civil Twilight 7:09 AM EST 6:09 PM EST
Nautical Twilight 6:38 AM EST 6:40 PM EST
Astronomical Twilight 6:07 AM EST 7:10 PM EST
Moon 9:53 AM EST (1/15) 10:16 PM EST (1/15)
Length of Visible Light 11h 00m
Length of Day
10h 05m
Waxing Crescent, 19% of the Moon is Illuminated
Jan 15
Waxing Crescent
Jan 18
First Quarter
Jan 26
Full
Feb 3
Last Quarter
Feb 10
New

Hourly Weather History & Observations

Time (EST) Temp. Windchill Dew Point Humidity Pressure Visibility Wind Dir Wind Speed Gust Speed Precip Events Conditions
12:00 AM 62.6 °F - 60.8 °F 94% 30.11 in 9.0 mi Calm Calm - N/A   Overcast
12:53 AM 63.0 °F - 61.0 °F 93% 30.10 in 3.0 mi SSE 3.5 mph - 0.00 in Rain Light Rain
1:04 AM 62.6 °F - 60.8 °F 94% 30.12 in 4.0 mi South 3.5 mph - 0.00 in   Overcast
1:26 AM 62.6 °F - 60.8 °F 94% 30.12 in 4.0 mi Calm Calm - 0.01 in Rain Light Rain
1:53 AM 63.0 °F - 61.0 °F 93% 30.10 in 2.5 mi Calm Calm - 0.01 in Rain Light Rain
2:17 AM 62.6 °F - 60.8 °F 94% 30.12 in 3.0 mi ESE 4.6 mph - 0.01 in Rain Light Rain
2:53 AM 59.0 °F - 57.0 °F 93% 30.10 in 2.5 mi ENE 3.5 mph - 0.03 in Rain Rain
3:00 AM 59.0 °F - 57.2 °F 94% 30.12 in 4.0 mi NE 4.6 mph - 0.00 in Rain Light Rain
3:53 AM 55.9 °F - 55.0 °F 97% 30.09 in 4.0 mi ENE 5.8 mph - 0.01 in Rain Light Rain
4:02 AM 55.4 °F - 53.6 °F 94% 30.10 in 2.0 mi ENE 4.6 mph - 0.01 in Rain Light Rain
4:26 AM 55.4 °F - 53.6 °F 94% 30.09 in 3.0 mi ENE 4.6 mph - 0.03 in Rain Light Rain
4:53 AM 55.9 °F - 54.0 °F 93% 30.07 in 10.0 mi ENE 4.6 mph - 0.03 in   Overcast
5:53 AM 55.9 °F - 54.0 °F 93% 30.08 in 10.0 mi NE 3.5 mph - N/A   Overcast
6:53 AM 55.9 °F - 54.0 °F 93% 30.10 in 10.0 mi Calm Calm - N/A   Overcast
7:53 AM 55.9 °F - 54.0 °F 93% 30.12 in 10.0 mi NE 3.5 mph - N/A   Overcast
8:53 AM 55.9 °F - 54.0 °F 93% 30.14 in 10.0 mi NE 9.2 mph - 0.00 in Rain Light Rain
9:53 AM 55.0 °F - 53.1 °F 93% 30.14 in 10.0 mi ENE 6.9 mph - 0.00 in Rain Light Rain
10:53 AM 53.1 °F - 52.0 °F 96% 30.14 in 5.0 mi NE 6.9 mph - 0.01 in Rain Light Rain
11:53 AM 52.0 °F - 50.0 °F 93% 30.12 in 5.0 mi ENE 9.2 mph - 0.01 in Rain Light Rain
12:53 PM 52.0 °F - 50.0 °F 93% 30.09 in 3.0 mi ENE 11.5 mph - 0.03 in Rain Light Rain
1:37 PM 51.8 °F - 50.0 °F 94% 30.08 in 7.0 mi NE 9.2 mph - 0.04 in Rain Light Rain
1:53 PM 52.0 °F - 48.9 °F 89% 30.07 in 10.0 mi NE 10.4 mph - 0.04 in Rain Light Rain
2:53 PM 51.1 °F - 48.0 °F 89% 30.05 in 7.0 mi NE 13.8 mph 21.9 mph 0.01 in Rain Light Rain
3:53 PM 50.0 °F - 46.9 °F 89% 30.06 in 10.0 mi ENE 11.5 mph 19.6 mph 0.00 in   Overcast
4:19 PM 48.2 °F - 46.4 °F 93% 30.07 in 10.0 mi NE 10.4 mph - N/A   Overcast
4:53 PM 48.9 °F - 46.9 °F 93% 30.07 in 4.0 mi NE 11.5 mph - N/A   Overcast
5:53 PM 48.0 °F - 46.0 °F 93% 30.09 in 10.0 mi NE 10.4 mph - N/A   Overcast
6:53 PM 48.0 °F - 46.0 °F 93% 30.09 in 10.0 mi NE 10.4 mph - 0.00 in   Overcast
7:53 PM 46.9 °F - 45.0 °F 93% 30.07 in 10.0 mi NE 10.4 mph - 0.01 in   Overcast
8:06 PM 46.4 °F 40.7 °F 44.6 °F 93% 30.06 in 10.0 mi ENE 12.7 mph - N/A   Overcast
8:53 PM 46.0 °F 40.2 °F 44.1 °F 93% 30.05 in 10.0 mi NE 12.7 mph - N/A   Overcast
9:00 PM 46.4 °F 40.4 °F 44.6 °F 93% 30.05 in 10.0 mi NE 13.8 mph 20.7 mph N/A   Overcast
9:34 PM 46.4 °F 40.4 °F 42.8 °F 87% 30.05 in 10.0 mi NE 13.8 mph - N/A   Overcast
9:53 PM 46.0 °F 41.0 °F 43.0 °F 89% 30.05 in 10.0 mi NE 10.4 mph - N/A   Overcast
10:07 PM 46.4 °F 41.5 °F 42.8 °F 87% 30.06 in 10.0 mi NE 10.4 mph - N/A   Overcast
10:16 PM 46.4 °F 40.7 °F 42.8 °F 87% 30.05 in 10.0 mi NE 12.7 mph - N/A   Overcast
10:53 PM 46.0 °F 43.9 °F 43.0 °F 89% 30.06 in 10.0 mi NE 4.6 mph - N/A   Overcast
11:25 PM 46.4 °F 43.5 °F 42.8 °F 87% 30.05 in 8.0 mi Variable 5.8 mph - 0.00 in Rain Light Rain
11:53 PM 46.0 °F 41.4 °F 43.0 °F 89% 30.06 in 10.0 mi ENE 9.2 mph - 0.02 in Rain Light Rain